sat.trackr.live / text

‹ back to catalog

IRIDIUM 180

NORAD 43922 · 2019-002A

PAYLOAD ACTIVE UNKNOWN

§ Identity

Operator
Country
US
Launch date
2019-01-11
Launch site
AFWTR
Launch vehicle
Mass (kg)
RCS (m²)

Purposes: comms

External: N2YO · Heavens-Above · Gunter

§ Orbital elements

Epoch: 2026-09-19T21:09:30.960576Z

Period
100.40 min
Inclination
86.3971°
Eccentricity
0.0002248
Mean motion
14.34217763 rev/d
Perigee alt
776.1 km
Apogee alt
779.3 km
Semi-major
7,155.8 km
B*
6.4481e-6
RAAN
314.0355°
Arg perigee
95.6796°
Mean anomaly
264.4656°
Rev number
40,256

§ Raw data

IRIDIUM 1801 43922U 19002A   26262.88160834  .00000038  00000+0  64481-5 0  99962 43922  86.3971 314.0355 0002248  95.6796 264.4656 14.34217763402563

JSON: /api/v1/satellites/43922 · /tle

For live sub-satellite position, see the globe view (requires WebGL).

§ Visibility from observer

Set your observer location to see the next 7 days of passes ≥ 10°. The values pass through the URL so the page stays shareable.

No JS? Fill the form by hand. The geolocation button needs JavaScript.